Location: Bannatyne
(13.0833°N, 59.5333°W)
Time: 14:23:45
(UTC+00:00)

deb Explorer IX - Pass Details

Date: 30 January 2020
Orbit: 549 x 1099 km, 38.8° (Epoch: 22 February)

Event Time Altitude Azimuth Distance (km) Brightness Sun altitude
Rises 07:58:18 0° 294° (WNW) 3,836 - -35.3°
Reaches altitude 10° 08:01:26 10° 284° (WNW) 2,826 - -34.5°
Maximum altitude 08:07:22 31° 225° (SW) 1,598 - -33.1°
Exits shadow 08:10:11 22° 183° (S) 1,877 ? -32.5°
Drops below altitude 10° 08:12:41 10° 164° (SSE) 2,518 ? -31.9°
Sets 08:15:21 0° 153° (SSE) 3,361 ? -31.2°
